[[{"header":{"parameterUnit":"m.s-1","parameterCategory":1,"la1":30.2991,"la2":30.254,"lo1":-89.0895,"lo2":-89.0444,"dy":0.0017,"dx":0.0017,"nx":28,"ny":28,"refTime":"2024-02-21T03:00:00:Z","depth":0,"parameterNumber":2,"parameterNumberName":"U-component_of_WINDS"},"data":[0,0,0,0,0,0,0,0,0,0,0,0,0,0,0,0,0,0,0,0,0,0,0,0,0,0,0,0,0,0,0,0,0,0,0,0,0,0,0,0,0,0,0,0,0,0,0,0,0,0,0,0,0,0,0,0,0,0,1.6234,1.6234,0,1.6189,1.6188,1.6188,1.6119,1.6117,1.6116,1.6115,1.6072,1.6072,1.6072,0,0,0,0,0,0,0,0,0,0,0,0,0,1.6264,1.6264,1.6234,1.6234,1.6233,1.6189,1.6188,1.6188,1.6119,1.6117,1.6116,1.6114,1.6072,1.6072,1.6072,0,0,0,0,0,0,0,0,0,0,0,0,0,1.6239,1.6264,1.6234,1.6193,1.6189,1.6189,1.6188,1.6188,1.6119,1.6117,1.6115,1.6114,1.6072,1.6072,1.6072,1.6109,0,0,1.6072,1.6072,0,0,0,0,0,0,0,0,1.624,1.6238,1.62,1.6196,1.6191,1.6157,1.6183,1.6162,1.612,1.6146,1.6115,1.6113,1.6102,1.61,1.6095,1.6107,1.6106,1.6072,1.6072,1.6072,1.6072,0,0,0,0,0,0,0,1.6242,1.6239,1.6216,1.6199,1.6194,1.6178,1.6173,1.6179,1.6135,1.6143,1.6138,1.6134,1.61,1.6095,1.6094,1.6105,1.6072,1.6072,1.6072,1.6072,1.6148,1.615,0,0,0,0,0,0,1.6249,1.6241,1.6218,1.6215,1.6212,1.6179,1.6173,1.617,1.6135,1.6128,1.6135,1.6131,1.6096,1.6094,1.6092,1.6135,1.6072,1.6072,1.6072,1.6146,1.6148,1.615,0,0,0,0,0,0,1.625,1.6248,1.622,1.6227,1.6222,1.6181,1.6178,1.617,1.6166,1.6129,1.6121,1.6139,1.6095,1.6092,1.6106,1.6133,1.6072,1.6072,1.6143,1.6147,1.6149,1.6221,0,0,0,0,0,0,1.6251,1.6249,1.6262,1.6227,1.6222,1.6233,1.618,1.6171,1.6166,1.616,1.613,1.6123,1.6093,1.6106,1.6106,1.6132,1.6072,1.6141,1.6145,1.6148,1.6216,1.6226,1.6234,0,0,0,0,0,1.6253,1.6284,1.6263,1.626,1.6237,1.6235,1.6232,1.6195,1.6168,1.6182,1.6158,1.6124,1.6129,1.6108,1.6107,1.6133,1.6139,1.6144,1.6148,1.6212,1.6224,1.6234,0,0,0,0,0,0,1.6323,1.6278,1.6254,1.6275,1.6259,1.6223,1.6239,1.6209,1.6201,1.6196,1.6152,1.6146,1.6166,1.615,1.6128,1.6169,1.6129,1.6134,1.6178,1.6189,1.6198,1.6202,1.6072,0,0,0,0,0,1.6341,1.6342,1.6303,1.6325,1.6318,1.628,1.6278,1.6251,1.6234,1.6227,1.6204,1.6189,1.6187,1.6187,1.6183,1.6213,1.6207,1.6231,1.624,1.6248,1.6253,1.6269,1.628,1.6165,1.6165,1.6165,0,0,1.6377,1.6353,1.6357,1.6339,1.6323,1.6327,1.6275,1.6281,1.6284,1.6228,1.624,1.6223,1.6203,1.6226,1.6235,1.6214,1.6283,1.6253,1.626,1.6261,1.6275,1.6286,1.6296,1.6168,1.6168,1.6167,0,0,1.6447,1.6428,1.6445,1.6431,1.6408,1.6382,1.6387,1.6355,1.6342,1.6353,1.6312,1.6315,1.6312,1.6301,1.6294,1.6361,1.6331,1.6361,1.641,1.6427,1.6436,1.6444,1.6469,1.6479,1.6366,1.6366,1.6366,0,1.6496,1.6499,1.6458,1.6466,1.6461,1.641,1.6428,1.6416,1.6394,1.6392,1.6368,1.6365,1.6348,1.6368,1.6385,1.6381,1.6386,1.6365,1.6437,1.6445,1.6452,1.6476,1.6485,1.637,1.6369,1.6369,1.6368,0,1.6561,1.6564,1.6581,1.656,1.6556,1.6569,1.6532,1.6533,1.6507,1.6484,1.6497,1.6475,1.6467,1.647,1.6444,1.6487,1.6475,1.6445,1.6405,1.6467,1.6489,1.6498,1.6375,1.6374,1.6373,1.6372,0,0,1.6674,1.6631,1.6638,1.6629,1.66,1.6602,1.6614,1.6605,1.6608,1.6594,1.6604,1.6604,1.6577,1.657,1.6543,1.6557,1.6614,1.6526,1.6525,1.6545,1.6662,1.6686,1.6697,1.6593,1.6594,1.6596,1.6664,0,1.6739,1.6756,1.672,1.6746,1.6749,1.6702,1.6712,1.6697,1.6677,1.6677,1.6655,1.6656,1.6619,1.6615,1.6627,1.6605,1.6637,1.6599,1.6604,1.6605,1.6612,1.6708,1.6733,1.6799,1.6672,1.6674,1.6675,0,1.6817,1.6807,1.6834,1.6805,1.6805,1.6816,1.6806,1.6806,1.6789,1.6773,1.6766,1.6734,1.6745,1.6706,1.6722,1.6697,1.6696,1.6686,1.6688,1.6688,1.6645,1.6713,1.6819,1.6829,1.6688,1.6686,1.6686,0,1.6899,1.6892,1.6908,1.6901,1.6868,1.6877,1.6863,1.6843,1.6841,1.6833,1.6831,1.6824,1.6821,1.6817,1.6786,1.6759,1.6807,1.6763,1.6796,1.6797,1.6809,1.6809,1.6918,1.6806,1.6806,1.6806,1.6806,0,1.6976,1.6995,1.6945,1.6954,1.6975,1.6934,1.6955,1.6937,1.692,1.6927,1.6885,1.6893,1.6849,1.6852,1.6827,1.6846,1.6844,1.6833,1.6827,1.6838,1.684,1.6839,1.6834,1.6808,1.6808,1.6807,1.6807,0,1.7072,1.7038,1.7052,1.702,1.7012,1.7029,1.7001,1.701,1.6987,1.6996,1.6996,1.6961,1.6962,1.693,1.6925,1.6908,1.6939,1.6923,1.6945,1.6941,1.6975,1.6974,1.7089,1.7103,1.6981,1.6982,1.6983,0,1.7124,1.7137,1.7106,1.7107,1.7096,1.7098,1.7096,1.7056,1.7056,1.7037,1.7049,1.7047,1.7044,1.7049,1.7024,1.702,1.7006,1.7046,1.7005,1.7017,1.7009,1.7009,1.7012,1.7056,1.7057,1.7059,1.706,0,1.7221,1.7204,1.7202,1.7194,1.7192,1.7184,1.7174,1.7177,1.7135,1.7136,1.7137,1.7135,1.713,1.713,1.7122,1.7109,1.7079,1.7073,1.708,1.7093,1.7106,1.7101,1.6971,1.707,1.7069,1.7069,1.7068,1.7068,1.7298,1.7308,1.7288,1.7288,1.7275,1.7267,1.7274,1.7252,1.7252,1.7245,1.7222,1.7227,1.7211,1.7197,1.7188,1.7193,1.7173,1.7183,1.7186,1.719,1.7198,1.7104,1.7191,1.7191,1.719,1.719,1.719,0,1.7395,1.738,1.7379,1.7366,1.7366,1.7335,1.7322,1.7325,1.733,1.7317,1.7315,1.7317,1.7317,1.7292,1.7289,1.7298,1.7284,1.7298,1.7298,1.7297,1.7214,1.7209,1.731,1.731,1.731,1.731,1.731,1.731,1.7445,1.7462,1.7443,1.7454,1.7439,1.7443,1.7439,1.7432,1.7421,1.7426,1.7425,1.7408,1.7391,1.7387,1.7386,1.7379,1.7381,1.7401,1.7389,1.7314,1.7302,1.7291,1.7286,1.7401,1.7401,1.7471,1.7472,1.7472]},{"header":{"parameterUnit":"m.s-1","parameterCategory":1,"la1":30.2991,"la2":30.254,"lo1":-89.0895,"lo2":-89.0444,"dy":0.0017,"dx":0.0017,"nx":28,"ny":28,"refTime":"2024-02-21T03:00:00:Z","depth":0,"parameterNumber":3,"parameterNumberName":"V-component_of_WINDS"},"data":[0,0,0,0,0,0,0,0,0,0,0,0,0,0,0,0,0,0,0,0,0,0,0,0,0,0,0,0,0,0,0,0,0,0,0,0,0,0,0,0,0,0,0,0,0,0,0,0,0,0,0,0,0,0,0,0,0,0,4.5132,4.5132,0,4.5124,4.5124,4.5124,4.5093,4.5092,4.5092,4.5091,4.5081,4.5082,4.5082,0,0,0,0,0,0,0,0,0,0,0,0,0,4.5122,4.5123,4.5132,4.5132,4.5132,4.5124,4.5124,4.5124,4.5093,4.5092,4.5091,4.5091,4.5081,4.5082,4.5082,0,0,0,0,0,0,0,0,0,0,0,0,0,4.5121,4.5123,4.5132,4.5116,4.5114,4.5124,4.5124,4.5123,4.5093,4.5092,4.5091,4.509,4.5081,4.5082,4.5082,4.5107,0,0,4.5084,4.5084,0,0,0,0,0,0,0,0,4.5122,4.5122,4.5119,4.5117,4.5115,4.5108,4.5117,4.5118,4.5094,4.5101,4.5091,4.509,4.5091,4.5091,4.5091,4.5106,4.5106,4.5084,4.5084,4.5085,4.5085,0,0,0,0,0,0,0,4.5122,4.5122,4.5129,4.5119,4.5117,4.5109,4.5108,4.5117,4.5102,4.5101,4.5098,4.5098,4.509,4.5091,4.5091,4.5106,4.5084,4.5085,4.5085,4.5085,4.5141,4.5143,0,0,0,0,0,0,4.5124,4.5122,4.5129,4.5129,4.5116,4.511,4.5109,4.5112,4.5102,4.5099,4.5099,4.5096,4.5091,4.509,4.5091,4.512,4.5085,4.5085,4.5086,4.514,4.5142,4.5143,0,0,0,0,0,0,4.5124,4.5125,4.513,4.5125,4.5125,4.5111,4.5115,4.5112,4.5113,4.5101,4.5098,4.5102,4.509,4.509,4.5103,4.5119,4.5086,4.5086,4.5139,4.5141,4.5142,4.5179,0,0,0,0,0,0,4.5124,4.5125,4.5134,4.5125,4.5125,4.5143,4.5116,4.5113,4.5114,4.5111,4.5103,4.5101,4.5089,4.5103,4.5104,4.512,4.5086,4.5138,4.514,4.5142,4.5176,4.5181,4.5186,0,0,0,0,0,4.5124,4.5144,4.5135,4.5136,4.5136,4.5144,4.5144,4.513,4.5115,4.5125,4.5117,4.5101,4.5117,4.5104,4.5105,4.5122,4.5136,4.5139,4.5142,4.5174,4.518,4.5186,0,0,0,0,0,0,4.5155,4.5143,4.5132,4.5151,4.5149,4.5138,4.515,4.5137,4.5138,4.5135,4.5117,4.5116,4.5132,4.5128,4.5114,4.5145,4.5124,4.5127,4.5148,4.5154,4.5159,4.5161,4.5087,0,0,0,0,0,4.5164,4.5171,4.516,4.5177,4.5177,4.5164,4.5166,4.5155,4.5152,4.5151,4.5144,4.5142,4.5146,4.515,4.5153,4.5174,4.5173,4.5186,4.5191,4.5195,4.5199,4.5212,4.5218,4.5151,4.5151,4.5151,0,0,4.5183,4.5177,4.5183,4.5183,4.518,4.5189,4.5163,4.5172,4.5178,4.5152,4.5166,4.516,4.5156,4.5175,4.5182,4.5171,4.5217,4.5199,4.5202,4.5203,4.5215,4.5221,4.5227,4.5153,4.5153,4.5153,0,0,4.5222,4.5218,4.5233,4.523,4.5227,4.5218,4.5221,4.5213,4.5209,4.5222,4.5204,4.521,4.5217,4.5216,4.5216,4.5256,4.5242,4.5257,4.5284,4.5297,4.5302,4.5307,4.5323,4.5328,4.526,4.526,4.526,0,4.5246,4.5258,4.5242,4.5253,4.5255,4.5232,4.5247,4.5246,4.5243,4.5245,4.5232,4.5243,4.5238,4.5257,4.5266,4.5266,4.5271,4.5259,4.5302,4.5307,4.5311,4.5326,4.5332,4.5262,4.5262,4.5261,4.5261,0,4.5289,4.5297,4.5309,4.5309,4.5311,4.5324,4.5311,4.5315,4.5304,4.5297,4.5311,4.5304,4.5307,4.531,4.5299,4.5327,4.5321,4.5306,4.5284,4.532,4.5334,4.5339,4.5265,4.5264,4.5263,4.5263,0,0,4.5349,4.5339,4.5344,4.5344,4.5338,4.5344,4.5356,4.5359,4.5365,4.5363,4.5374,4.5381,4.5367,4.5368,4.5356,4.5367,4.5401,4.5351,4.535,4.5362,4.5434,4.5448,4.5455,4.5391,4.5392,4.5393,4.5436,0,4.5388,4.5409,4.5395,4.5419,4.5427,4.5406,4.5416,4.5414,4.5408,4.5414,4.5405,4.5412,4.5392,4.5393,4.5402,4.5395,4.5416,4.5391,4.5402,4.5403,4.5407,4.5462,4.5476,4.5516,4.5441,4.5442,4.5442,0,4.5436,4.5439,4.5464,4.5457,4.546,4.547,4.5473,4.5478,4.5475,4.547,4.5471,4.5456,4.5468,4.5446,4.5463,4.5447,4.545,4.5447,4.5448,4.5451,4.5427,4.5468,4.5529,4.5536,4.545,4.545,4.5449,0,4.5481,4.5489,4.5506,4.5506,4.5499,4.5507,4.5504,4.55,4.5503,4.5505,4.5507,4.5509,4.5511,4.5514,4.5501,4.5485,4.552,4.5496,4.5517,4.5518,4.5528,4.5528,4.5592,4.5526,4.5526,4.5525,4.5525,0,4.5528,4.5544,4.5526,4.5537,4.5555,4.5538,4.5557,4.5551,4.5548,4.5557,4.5538,4.5547,4.5528,4.5535,4.5525,4.5542,4.5542,4.5539,4.5537,4.5542,4.5543,4.5546,4.5544,4.5527,4.5527,4.5526,4.5526,0,4.5581,4.5569,4.5586,4.5578,4.5576,4.5591,4.5583,4.5593,4.5585,4.5597,4.5598,4.5586,4.5593,4.558,4.5586,4.5579,4.5603,4.5595,4.5605,4.5603,4.5626,4.5625,4.5697,4.5706,4.5631,4.5632,4.5633,0,4.5613,4.5626,4.5619,4.5624,4.5623,4.5631,4.5634,4.5618,4.5623,4.5621,4.5631,4.5637,4.5641,4.5654,4.5646,4.565,4.5643,4.5668,4.5644,4.565,4.5647,4.5647,4.5649,4.5674,4.5675,4.5676,4.5676,0,4.5672,4.5666,4.5671,4.5676,4.5681,4.5683,4.5684,4.5689,4.5672,4.5678,4.5686,4.5689,4.5695,4.5702,4.5705,4.5702,4.5687,4.5683,4.5689,4.5696,4.5703,4.5702,4.5621,4.5683,4.5682,4.5681,4.5681,4.5681,4.5717,4.5728,4.5726,4.5733,4.5732,4.5734,4.5743,4.5736,4.5743,4.5747,4.5737,4.5748,4.5745,4.5747,4.5745,4.5754,4.5743,4.575,4.5753,4.5756,4.576,4.5699,4.5754,4.5754,4.5753,4.5753,4.5753,0,4.5777,4.5775,4.5782,4.5784,4.579,4.5775,4.5775,4.5782,4.5792,4.5791,4.5795,4.5805,4.5812,4.5804,4.5809,4.5817,4.5811,4.5819,4.582,4.582,4.5769,4.5765,4.5825,4.5825,4.5825,4.5825,4.5825,4.5825,4.5809,4.5828,4.5821,4.5839,4.5836,4.5847,4.5849,4.5851,4.585,4.5862,4.5868,4.5862,4.5859,4.5864,4.5869,4.5866,4.587,4.5882,4.5878,4.583,4.5823,4.5817,4.5813,4.5883,4.5883,4.5929,4.5929,4.5929]}]]